CW0214 Weather Reports


time (UTC)temp
C
wind
direction
speed
KPH
gust
KPH
rain 1hr
cm
rain 24hr
cm
rain mn
cm
humidity
%
barometer
mb
20260504045404 11 110 4.8 9.7 0.00 0.23 0.00 93 1015.7
20260504044904 11 94 3.2 9.7 0.00 0.23 0.00 93 1015.7
20260504044405 11 111 1.6 4.8 0.00 0.23 0.00 93 1015.7
20260504043905 11 115 1.6 4.8 0.00 0.23 0.00 93 1015.7
20260504043404 11 115 0.0 0.0 0.00 0.23 0.00 93 1015.8
20260504042905 11 115 0.0 0.0 0.00 0.23 0.00 93 1015.7
20260504042407 11 115 0.0 0.0 0.00 0.23 0.00 92 1015.7
20260504041405 11 113 0.0 4.8 0.00 0.23 0.00 92 1015.7
20260504040405 11 137 0.0 0.0 0.00 0.23 0.00 92 1015.7
20260504035904 11 136 1.6 4.8 0.00 0.23 0.00 92 1015.7
20260504035405 11 136 1.6 4.8 0.00 0.23 0.00 93 1015.8
20260504034904 11 135 0.0 0.0 0.00 0.23 0.00 93 1015.7
20260504034405 11 135 1.6 4.8 0.00 0.23 0.00 93 1015.7
20260504033405 11 132 3.2 8.0 0.00 0.23 0.00 93 1015.7
20260504032905 11 148 0.0 4.8 0.00 0.23 0.00 93 1015.8
20260504032405 11 148 1.6 9.7 0.00 0.23 0.00 93 1015.8
20260504031905 11 144 1.6 4.8 0.00 0.23 0.00 93 1015.8
20260504031405 11 141 0.0 0.0 0.00 0.23 0.00 93 1015.9
20260504030905 11 141 0.0 0.0 0.00 0.23 0.00 93 1015.9
20260504030405 11 141 0.0 0.0 0.00 0.23 0.00 93 1015.9
20260504025905 11 141 0.0 0.0 0.00 0.23 0.00 93 1015.8
20260504025405 11 141 0.0 0.0 0.00 0.23 0.00 93 1015.8
20260504024905 11 141 0.0 1.6 0.00 0.23 0.00 93 1015.8
20260504024405 11 141 0.0 4.8 0.00 0.23 0.00 93 1015.9
20260504023904 11 126 1.6 9.7 0.00 0.23 0.00 93 1015.8
20260504023404 11 78 0.0 8.0 0.00 0.23 0.00 93 1015.8
20260504022904 11 78 0.0 0.0 0.00 0.23 0.00 93 1015.8
20260504022404 11 78 0.0 0.0 0.00 0.23 0.00 93 1015.9
20260504021904 11 78 1.6 4.8 0.00 0.23 0.00 93 1015.8
20260504021405 11 78 0.0 1.6 0.00 0.23 0.00 93 1015.8
20260504020905 11 78 0.0 0.0 0.00 0.23 0.00 93 1015.8
20260504020404 11 78 0.0 0.0 0.00 0.23 0.00 92 1015.9
20260504015905 11 78 0.0 0.0 0.00 0.23 0.00 92 1015.9
20260504014404 11 78 0.0 1.6 0.00 0.23 0.00 92 1016.0
20260504013904 11 78 0.0 3.2 0.00 0.23 0.00 92 1016.0
20260504013405 11 78 0.0 3.2 0.00 0.23 0.00 92 1016.0
20260504012905 11 78 0.0 0.0 0.00 0.23 0.00 92 1016.0
20260504012404 11 78 0.0 0.0 0.00 0.23 0.00 92 1016.1
20260504011904 11 78 0.0 0.0 0.00 0.23 0.00 92 1016.1
20260504011405 11 78 0.0 0.0 0.00 0.23 0.00 92 1016.1
20260504010904 11 78 0.0 0.0 0.00 0.23 0.00 92 1016.0
20260504010405 11 78 0.0 0.0 0.00 0.23 0.00 92 1016.1
20260504005905 11 78 0.0 4.8 0.00 0.23 0.00 92 1016.1
20260504004904 12 78 0.0 0.0 0.00 0.23 0.00 92 1016.1
20260504004405 12 78 0.0 0.0 0.00 0.23 0.00 92 1016.1
20260504003905 12 78 0.0 4.8 0.00 0.23 0.00 92 1016.1
20260504003405 12 78 0.0 0.0 0.00 0.23 0.00 92 1016.1
20260504002905 12 78 0.0 0.0 0.00 0.23 0.00 92 1016.1
20260504002405 12 78 0.0 8.0 0.00 0.23 0.00 92 1016.2
20260504001904 12 79 0.0 3.2 0.00 0.23 0.00 92 1016.1
20260504001404 12 74 0.0 0.0 0.00 0.23 0.00 92 1016.2
20260504000904 12 74 0.0 3.2 0.00 0.23 0.00 91 1016.2
20260504000405 12 74 0.0 3.2 0.00 0.23 0.00 91 1016.2
20260503235905 12 74 0.0 0.0 0.00 0.23 0.00 91 1016.2
20260503235404 12 74 0.0 8.0 0.00 0.23 0.00 91 1016.2
20260503234905 12 46 0.0 3.2 0.00 0.23 0.00 91 1016.2
20260503234404 12 92 0.0 3.2 0.00 0.23 0.00 91 1016.2
20260503233904 12 95 0.0 0.0 0.00 0.23 0.00 91 1016.2
20260503233405 12 95 0.0 0.0 0.00 0.23 0.00 91 1016.2
20260503232904 12 94 0.0 8.0 0.00 0.23 0.00 91 1016.1
20260503232405 12 92 1.6 8.0 0.00 0.23 0.00 91 1016.2
20260503231904 12 134 0.0 3.2 0.00 0.23 0.00 90 1016.2
20260503231404 12 134 0.0 0.0 0.00 0.23 0.00 90 1016.2
20260503230904 12 134 0.0 1.6 0.00 0.23 0.00 90 1016.1
20260503230405 12 95 0.0 0.0 0.00 0.23 0.00 90 1016.2
20260503225904 12 95 0.0 0.0 0.00 0.23 0.23 90 1016.2
20260503225404 12 94 0.0 4.8 0.00 0.23 0.23 90 1016.2
20260503224904 12 138 1.6 3.2 0.00 0.23 0.23 89 1016.3
20260503224405 13 135 0.0 0.0 0.00 0.23 0.23 89 1016.3
20260503223904 13 135 0.0 0.0 0.00 0.23 0.23 89 1016.3
20260503223406 13 135 0.0 1.6 0.00 0.23 0.23 89 1016.3
20260503222905 13 135 0.0 9.7 0.00 0.23 0.23 89 1016.2
20260503222405 13 122 1.6 8.0 0.00 0.23 0.23 89 1016.2
20260503221905 13 132 0.0 4.8 0.00 0.23 0.23 89 1016.2
20260503220904 13 132 0.0 0.0 0.00 0.23 0.23 89 1016.1
20260503220404 13 132 0.0 4.8 0.00 0.23 0.23 89 1016.2
20260503215404 13 132 0.0 1.6 0.00 0.23 0.23 89 1016.3
20260503214404 13 151 3.2 9.7 0.00 0.23 0.23 88 1016.3
20260503213904 13 137 1.6 11.3 0.00 0.23 0.23 88 1016.3
20260503212904 13 111 0.0 8.0 0.00 0.23 0.23 88 1016.3
20260503212404 13 103 0.0 8.0 0.00 0.23 0.23 88 1016.2
20260503211904 13 120 0.0 12.9 0.00 0.23 0.23 87 1016.1
20260503211404 13 82 3.2 14.5 0.00 0.23 0.23 87 1016.1
20260503210904 13 116 4.8 11.3 0.00 0.23 0.23 87 1016.0
20260503205904 13 119 1.6 14.5 0.00 0.23 0.23 87 1016.0
20260503205404 13 136 1.6 16.1 0.00 0.23 0.23 87 1015.9
20260503204904 13 125 0.0 14.5 0.00 0.23 0.23 86 1015.9
20260503204405 13 116 6.4 14.5 0.00 0.23 0.23 86 1015.9
20260503203905 13 154 4.8 12.9 0.00 0.23 0.23 86 1015.7
20260503203404 13 113 3.2 14.5 0.00 0.23 0.23 86 1015.7
20260503202905 13 83 3.2 9.7 0.00 0.23 0.23 86 1015.6
20260503202404 13 118 8.0 16.1 0.00 0.23 0.23 86 1015.5
20260503201904 14 156 3.2 12.9 0.00 0.23 0.23 86 1015.4
20260503201405 14 128 1.6 11.3 0.00 0.23 0.23 86 1015.3
20260503200404 14 158 0.0 16.1 0.00 0.23 0.23 86 1015.1
20260503195404 14 107 0.0 8.0 0.00 0.23 0.23 86 1015.1
20260503194904 14 149 1.6 8.0 0.00 0.23 0.23 85 1015.0
20260503194404 14 117 0.0 0.0 0.00 0.23 0.23 85 1015.1
20260503193904 14 117 1.6 11.3 0.00 0.23 0.23 84 1015.0
20260503193404 15 131 0.0 0.0 0.00 0.23 0.23 84 1015.0
20260503192905 15 124 1.6 11.3 0.00 0.23 0.23 84 1014.9
20260503191405 15 98 0.0 9.7 0.00 0.23 0.23 83 1014.8
20260503190906 15 97 1.6 11.3 0.00 0.23 0.23 83 1014.8
20260503190405 15 68 3.2 16.1 0.00 0.23 0.23 83 1014.7
20260503184905 15 51 0.0 8.0 0.00 0.23 0.23 84 1014.5
20260503184405 16 77 4.8 12.9 0.00 0.23 0.23 84 1014.5
20260503183906 16 93 4.8 11.3 0.00 0.23 0.23 84 1014.5
20260503183405 16 142 1.6 16.1 0.00 0.23 0.23 84 1014.3
20260503182905 16 135 6.4 12.9 0.00 0.23 0.23 84 1014.4
20260503182405 16 108 3.2 9.7 0.00 0.23 0.23 85 1014.3
20260503181906 16 108 0.0 3.2 0.00 0.23 0.23 86 1014.4
20260503181405 16 114 1.6 9.7 0.00 0.23 0.23 87 1014.4
20260503180905 16 129 4.8 12.9 0.05 0.23 0.23 88 1014.3
20260503175905 16 74 0.0 4.8 0.05 0.23 0.23 88 1014.4
20260503175405 15 74 0.0 0.0 0.08 0.23 0.23 88 1014.4
20260503174905 15 74 0.0 0.0 0.08 0.23 0.23 89 1014.4
20260503174405 16 74 0.0 0.0 0.08 0.23 0.23 88 1014.4
20260503173905 15 188 0.0 4.8 0.10 0.23 0.23 88 1014.4
20260503172905 15 137 0.0 4.8 0.15 0.23 0.23 88 1014.3
20260503172406 15 136 0.0 4.8 0.15 0.23 0.23 89 1014.4
20260503171905 15 136 0.0 3.2 0.15 0.23 0.23 89 1014.4
20260503171405 15 186 0.0 4.8 0.23 0.23 0.23 88 1014.2
20260503150905 18 117 8.0 16.1 0.00 0.00 0.00 68 1014.2
20260503130405 18 124 4.8 14.5 0.00 0.00 0.00 67 1014.9
20260503110405 18 58 4.8 12.9 0.00 0.00 0.00 64 1015.4
20260503090405 15 122 1.6 8.0 0.00 0.00 0.00 87 1016.0
20260503081405 13 152 1.6 8.0 0.00 0.00 0.00 95 1016.1
20260503080904 13 168 0.0 0.0 0.00 0.00 0.00 95 1016.0
20260503072905 12 171 0.0 3.2 0.00 0.00 0.00 95 1015.8
20260503072405 12 171 0.0 3.2 0.00 0.00 0.00 95 1015.9
20260503071905 12 171 1.6 3.2 0.00 0.00 0.00 95 1015.8
20260503071405 12 171 0.0 0.0 0.00 0.00 0.00 95 1015.8
20260503070905 12 171 0.0 1.6 0.00 0.00 0.00 95 1015.8
20260503070405 12 171 0.0 0.0 0.00 0.00 0.00 95 1015.7
20260503054905 12 97 0.0 0.0 0.00 0.00 0.00 94 1015.3
20260503054404 12 97 0.0 0.0 0.00 0.00 0.00 94 1015.3
20260503053904 12 97 0.0 0.0 0.00 0.00 0.00 94 1015.3
20260503053405 12 97 0.0 0.0 0.00 0.00 0.00 94 1015.3
20260503052905 12 97 0.0 0.0 0.00 0.00 0.00 94 1015.3
20260503052405 12 97 0.0 0.0 0.00 0.00 0.00 94 1015.2
20260503051905 12 97 0.0 0.0 0.00 0.00 0.00 94 1015.2
20260503051405 12 97 0.0 0.0 0.00 0.00 0.00 94 1015.2
20260503050905 12 97 0.0 0.0 0.00 0.00 0.00 94 1015.3
20260503050405 12 97 0.0 0.0 0.00 0.00 0.00 94 1015.2
20260503045904 11 97 0.0 0.0 0.00 0.00 0.00 94 1015.1